Meteo Giornale » Osservazioni meteo Repubblica Ceca » Kbely

ore: 18:00 - Osservazioni Meteo Kbely
Lat. 50° 7' N Lon. 14° 32' E Alt. 286 metri s.l.m.

sereno

23 °C

Sereno

Temp. 24 Ore

15 °C

23 °C

Sud-Ovest

9.3 Km/h

Dew point 11 °C

Umidità 46 %

Visibilità  10 Km

Il sole sorge alle ore 06:16

Il sole tramonta alle ore 19:46

Data e Ora Cielo e Fenomeni T °C DP °C Um. % Pres. hPa Vis. km Vento km/h
Oggi h: 18:00 sereno Sereno 23 11 46 1019 10 SO 9.3
Oggi h: 17:00 sereno Sereno 22 10 46 1020 10 O 9.3
Oggi h: 16:00 sereno Sereno 22 10 46 1020 10 O/NO 11.1
Oggi h: 15:00 molto_nuvoloso Molto Nuvoloso 22 10 46 1020 10 O 13
Oggi h: 14:00 molto_nuvoloso Molto Nuvoloso 21 11 52 1021 10 O/NO 13
Oggi h: 13:00 molto_nuvoloso Molto Nuvoloso 20 10 52 1021 10 O 20.3
Oggi h: 12:00 molto_nuvoloso Molto Nuvoloso 20 11 56 1020 10 O 16.7
Oggi h: 11:00 molto_nuvoloso Molto Nuvoloso 19 12 63 1020 10 O 20.3
Oggi h: 10:00 molto_nuvoloso Molto Nuvoloso 19 12 63 1020 10 O 16.7
Oggi h: 09:00 nuvoloso Nuvoloso 18 13 72 1020 10 O/SO 24
Oggi h: 08:00 sereno Sereno 16 13 82 1019 10 S/SO 13
Oggi h: 07:00 sereno Sereno 15 12 82 1019 10 SO 16.7
Oggi h: 06:00 sereno Sereno 15 12 82 1019 10 SO 16.7
Oggi h: 05:00 sereno Sereno 15 12 82 1018 10 SO 16.7
Oggi h: 04:00 sereno Sereno 16 12 77 1018 10 SO 16.7
Oggi h: 03:00 sereno Sereno 17 11 67 1018 10 SO 20.3
Oggi h: 02:00 sereno Sereno 18 11 63 1018 10 O/SO 20.3
Oggi h: 01:00 sereno Sereno 17 11 67 1017 10 SO 18.5
Oggi h: 00:00 sereno Sereno 18 12 67 1017 10 SO 18.5
Ieri h: 23:00 sereno Sereno 17 12 72 1016 10 SO 14.8
Ieri h: 22:00 sereno Sereno 18 12 67 1016 10 S/SO 14.8
Ieri h: 21:00 sereno Sereno 19 11 59 1015 10 SO 13
Ieri h: 20:00 sereno Sereno 21 11 52 1015 10 O/SO 14.8
Ieri h: 19:00 sereno Sereno 23 11 46 1014 10 O/SO 25.9